• In Russia
  • List of Countries
  • For 7 days
  • Water Temperature
  • Weather Map
  • Weather Widgets
  • user-avatar
    Login

    Hourly Weather Medellín

    Today, 29 January, Wednesday

    Time Temperature Precipitation Wind Pressure Humidity
    00:00 +11°C° 0 mm 0 mps 586 mmHg 95%
    01:00 +11°C° 0 mm 0 mps 585 mmHg 95%
    02:00 +11°C° 0 mm 0 mps 585 mmHg 94%
    03:00 +10°C° 0 mm 0 mps 585 mmHg 94%
    04:00 +10°C° 0 mm 0 mps 584 mmHg 94%
    05:00 +10°C° 0 mm 0 mps 585 mmHg 93%
    06:00 +10°C° 0 mm 0 mps 585 mmHg 93%
    07:00 +10°C° 0 mm 0 mps 586 mmHg 92%
    08:00 +13°C° 0 mm 0 mps 588 mmHg 80%
    09:00 +16°C° 0 mm 0 mps 589 mmHg 69%
    10:00 +20°C° 0 mm 0 mps 591 mmHg 57%
    11:00 +21°C° 0 mm 0 mps 591 mmHg 54%
    12:00 +24°C° 0 mm 1 mps 591 mmHg 50%
    13:00 +25°C° 0 mm 1 mps 590 mmHg 47%
    14:00 +24°C° 0.5 mm 1 mps 589 mmHg 55%
    15:00 +23°C° 0.5 mm 1 mps 588 mmHg 62%
    16:00 +21°C° 0.5 mm 1 mps 587 mmHg 70%
    17:00 +19°C° 0.4 mm 1 mps 587 mmHg 78%
    18:00 +16°C° 0.4 mm 1 mps 586 mmHg 86%
    19:00 +14°C° 0.4 mm 1 mps 586 mmHg 94%
    20:00 +14°C° 0.1 mm 1 mps 586 mmHg 94%
    21:00 +13°C° 0.1 mm 0 mps 586 mmHg 95%
    22:00 +12°C° 0.1 mm 0 mps 586 mmHg 95%
    23:00 +12°C° 0 mm 0 mps 586 mmHg 95%

    Tomorrow, 30 January, Thursday

    Time Temperature Precipitation Wind Pressure Humidity
    00:00 +11°C° 0 mm 0 mps 586 mmHg 94%
    01:00 +11°C° 0 mm 0 mps 585 mmHg 94%
    02:00 +11°C° 0 mm 0 mps 585 mmHg 93%
    03:00 +11°C° 0 mm 0 mps 585 mmHg 93%
    04:00 +11°C° 0 mm 0 mps 585 mmHg 92%
    05:00 +11°C° 0 mm 0 mps 585 mmHg 92%
    06:00 +11°C° 0 mm 0 mps 585 mmHg 92%
    07:00 +11°C° 0 mm 0 mps 586 mmHg 92%
    08:00 +14°C° 0 mm 0 mps 587 mmHg 80%
    09:00 +19°C° 0 mm 1 mps 589 mmHg 68%
    10:00 +21°C° 0 mm 1 mps 590 mmHg 57%
    11:00 +23°C° 0 mm 1 mps 590 mmHg 53%
    12:00 +24°C° 0 mm 1 mps 590 mmHg 48%
    13:00 +25°C° 0 mm 1 mps 590 mmHg 44%
    14:00 +24°C° 0.4 mm 1 mps 589 mmHg 52%
    15:00 +23°C° 0.4 mm 1 mps 588 mmHg 59%
    16:00 +22°C° 0.4 mm 1 mps 587 mmHg 66%
    17:00 +20°C° 0.6 mm 1 mps 586 mmHg 75%
    18:00 +18°C° 0.6 mm 1 mps 586 mmHg 84%
    19:00 +15°C° 0.6 mm 1 mps 585 mmHg 93%
    20:00 +15°C° 0.3 mm 1 mps 586 mmHg 94%
    21:00 +14°C° 0.3 mm 1 mps 586 mmHg 94%
    22:00 +14°C° 0.3 mm 1 mps 586 mmHg 95%
    23:00 +14°C° 0 mm 1 mps 586 mmHg 95%

    Day after tomorrow, 31 January, Friday

    Time Temperature Precipitation Wind Pressure Humidity
    00:00 +12°C° 0 mm 0 mps 585 mmHg 94%
    01:00 +12°C° 0 mm 0 mps 585 mmHg 94%
    02:00 +11°C° 0 mm 0 mps 584 mmHg 94%
    03:00 +11°C° 0 mm 0 mps 584 mmHg 93%
    04:00 +11°C° 0 mm 0 mps 584 mmHg 93%
    05:00 +11°C° 0 mm 0 mps 584 mmHg 93%
    06:00 +11°C° 0 mm 0 mps 585 mmHg 92%
    07:00 +11°C° 0 mm 0 mps 585 mmHg 92%
    08:00 +14°C° 0 mm 0 mps 587 mmHg 81%
    09:00 +17°C° 0 mm 0 mps 588 mmHg 70%
    10:00 +20°C° 0 mm 0 mps 590 mmHg 59%
    11:00 +23°C° 0 mm 1 mps 590 mmHg 56%
    12:00 +24°C° 0 mm 1 mps 590 mmHg 52%
    13:00 +25°C° 0 mm 1 mps 590 mmHg 49%
    14:00 +24°C° 0.6 mm 1 mps 589 mmHg 55%
    15:00 +23°C° 0.6 mm 1 mps 588 mmHg 62%
    16:00 +22°C° 0.6 mm 1 mps 587 mmHg 68%
    17:00 +20°C° 0.4 mm 1 mps 587 mmHg 76%
    18:00 +18°C° 0.4 mm 1 mps 586 mmHg 85%
    19:00 +15°C° 0.4 mm 1 mps 586 mmHg 94%
    20:00 +15°C° 0.5 mm 1 mps 586 mmHg 95%
    21:00 +15°C° 0.5 mm 1 mps 586 mmHg 95%
    22:00 +15°C° 0.5 mm 1 mps 587 mmHg 96%
    23:00 +14°C° 0.4 mm 0 mps 586 mmHg 96%

    1 February, Saturday

    Time Temperature Precipitation Wind Pressure Humidity
    00:00 +13°C° 0.4 mm 0 mps 586 mmHg 96%
    01:00 +13°C° 0.4 mm 0 mps 586 mmHg 96%
    02:00 +13°C° 0 mm 0 mps 585 mmHg 96%
    03:00 +13°C° 0 mm 0 mps 585 mmHg 96%
    04:00 +12°C° 0 mm 0 mps 585 mmHg 97%
    05:00 +12°C° 0 mm 0 mps 585 mmHg 96%
    06:00 +12°C° 0 mm 0 mps 586 mmHg 96%
    07:00 +12°C° 0 mm 0 mps 586 mmHg 96%
    08:00 +15°C° 0 mm 0 mps 587 mmHg 86%
    09:00 +17°C° 0 mm 0 mps 588 mmHg 77%
    10:00 +21°C° 0 mm 1 mps 590 mmHg 67%
    11:00 +23°C° 0.2 mm 1 mps 590 mmHg 62%
    12:00 +24°C° 0.2 mm 1 mps 590 mmHg 57%
    13:00 +25°C° 0.2 mm 1 mps 589 mmHg 52%
    14:00 +24°C° 0.6 mm 1 mps 589 mmHg 58%
    15:00 +23°C° 0.6 mm 1 mps 588 mmHg 64%
    16:00 +22°C° 0.6 mm 1 mps 587 mmHg 70%
    17:00 +20°C° 0.6 mm 1 mps 586 mmHg 78%
    18:00 +18°C° 0.6 mm 1 mps 586 mmHg 85%
    19:00 +15°C° 0.6 mm 1 mps 585 mmHg 93%
    20:00 +15°C° 0.3 mm 1 mps 586 mmHg 94%
    21:00 +15°C° 0.3 mm 1 mps 586 mmHg 94%
    22:00 +13°C° 0.3 mm 0 mps 586 mmHg 95%
    23:00 +13°C° 0.1 mm 0 mps 586 mmHg 95%

    2 February, Sunday

    Time Temperature Precipitation Wind Pressure Humidity
    00:00 +13°C° 0.1 mm 0 mps 586 mmHg 95%
    01:00 +12°C° 0.1 mm 0 mps 585 mmHg 95%
    02:00 +12°C° 0 mm 0 mps 585 mmHg 95%
    03:00 +12°C° 0 mm 0 mps 585 mmHg 96%
    04:00 +12°C° 0 mm 0 mps 585 mmHg 96%
    05:00 +12°C° 0 mm 0 mps 585 mmHg 95%
    06:00 +12°C° 0 mm 0 mps 585 mmHg 95%
    07:00 +12°C° 0 mm 0 mps 586 mmHg 94%
    08:00 +15°C° 0 mm 0 mps 587 mmHg 85%
    09:00 +17°C° 0 mm 0 mps 589 mmHg 75%
    10:00 +20°C° 0 mm 0 mps 590 mmHg 65%
    11:00 +20°C° 0.5 mm 0 mps 589 mmHg 66%
    12:00 +20°C° 0.5 mm 0 mps 589 mmHg 67%
    13:00 +21°C° 0.5 mm 0 mps 588 mmHg 68%
    14:00 +20°C° 1.6 mm 0 mps 588 mmHg 71%
    15:00 +20°C° 1.6 mm 0 mps 587 mmHg 75%
    16:00 +21°C° 1.6 mm 1 mps 586 mmHg 78%
    17:00 +20°C° 1.3 mm 1 mps 586 mmHg 83%
    18:00 +18°C° 1.3 mm 1 mps 586 mmHg 88%
    19:00 +16°C° 1.3 mm 1 mps 585 mmHg 93%
    20:00 +14°C° 0.6 mm 0 mps 586 mmHg 94%
    21:00 +14°C° 0.6 mm 0 mps 586 mmHg 94%
    22:00 +14°C° 0.6 mm 0 mps 586 mmHg 95%
    23:00 +13°C° 0.2 mm 0 mps 586 mmHg 95%

    3 February, Monday

    Time Temperature Precipitation Wind Pressure Humidity
    00:00 +13°C° 0.2 mm 0 mps 586 mmHg 96%
    01:00 +13°C° 0.2 mm 0 mps 585 mmHg 96%
    02:00 +12°C° 0.1 mm 0 mps 585 mmHg 96%
    03:00 +12°C° 0.1 mm 0 mps 585 mmHg 96%
    04:00 +12°C° 0.1 mm 0 mps 584 mmHg 96%
    05:00 +12°C° 0 mm 0 mps 585 mmHg 96%
    06:00 +12°C° 0 mm 0 mps 585 mmHg 96%
    07:00 +12°C° 0 mm 0 mps 586 mmHg 95%
    08:00 +15°C° 0 mm 0 mps 587 mmHg 87%
    09:00 +17°C° 0 mm 0 mps 589 mmHg 78%
    10:00 +20°C° 0 mm 0 mps 590 mmHg 69%
    11:00 +20°C° 0.3 mm 0 mps 590 mmHg 67%
    12:00 +21°C° 0.3 mm 0 mps 590 mmHg 64%
    13:00 +22°C° 0.3 mm 0 mps 589 mmHg 62%
    14:00 +21°C° 0.5 mm 0 mps 589 mmHg 65%
    15:00 +23°C° 0.5 mm 1 mps 588 mmHg 68%
    16:00 +22°C° 0.5 mm 1 mps 588 mmHg 71%
    17:00 +20°C° 0.4 mm 1 mps 587 mmHg 79%
    18:00 +16°C° 0.4 mm 0 mps 587 mmHg 86%
    19:00 +14°C° 0.4 mm 0 mps 586 mmHg 94%
    20:00 +14°C° 0.2 mm 0 mps 586 mmHg 94%
    21:00 +13°C° 0.2 mm 0 mps 586 mmHg 95%
    22:00 +13°C° 0.2 mm 0 mps 587 mmHg 95%
    23:00 +13°C° 0.2 mm 0 mps 587 mmHg 95%
    Show more